Location: 22
(39.7117°N, 89.5929°W)
Time: 19:52:51
(UTC-05:00)

Vanguard 3 - Pass Details

Date: 03 February 2023
Orbit: 508 x 3249 km, 33.4° (Epoch: 30 March)

Event Time Altitude Azimuth Distance (km) Brightness Sun altitude
Rises 03:23:08 0° 272° (W) 7,064 - -42.7°
Reaches altitude 10° 03:34:08 10° 244° (WSW) 6,183 - -40.6°
Maximum altitude 03:38:19 11° 231° (SW) 6,040 - -39.8°
Drops below altitude 10° 03:42:25 10° 218° (SW) 6,022 - -39.1°
Exits shadow 03:48:15 - 201° (SSW) 6,212 11.4 -38.0°
Sets 03:52:44 0° 189° (S) 6,520 11.6 -37.1°
